• In Belarus
  • List of Countries
  • For 7 days
  • Water Temperature
  • Weather Map
  • Weather Widgets
  • user-avatar
    Login

    Hourly Weather Kalymnos

    Today, 28 February, Friday

    Time Temperature Precipitation Wind Pressure Humidity
    00:00 +14°C° 0 mm 7 mps 748 mmHg 76%
    01:00 +14°C° 0 mm 6 mps 748 mmHg 75%
    02:00 +14°C° 0 mm 6 mps 748 mmHg 73%
    03:00 +13°C° 0 mm 6 mps 748 mmHg 71%
    04:00 +13°C° 0 mm 5 mps 748 mmHg 70%
    05:00 +13°C° 0 mm 5 mps 748 mmHg 68%
    06:00 +13°C° 0 mm 4 mps 748 mmHg 66%
    07:00 +13°C° 0 mm 4 mps 749 mmHg 63%
    08:00 +13°C° 0 mm 3 mps 749 mmHg 61%
    09:00 +13°C° 0 mm 4 mps 749 mmHg 59%
    10:00 +14°C° 0 mm 4 mps 749 mmHg 58%
    11:00 +14°C° 0 mm 4 mps 749 mmHg 56%
    12:00 +14°C° 0 mm 4 mps 749 mmHg 56%
    13:00 +14°C° 0 mm 4 mps 748 mmHg 57%
    14:00 +14°C° 0 mm 4 mps 748 mmHg 57%
    15:00 +14°C° 0 mm 4 mps 747 mmHg 59%
    16:00 +13°C° 0 mm 4 mps 747 mmHg 61%
    17:00 +13°C° 0 mm 4 mps 747 mmHg 64%
    18:00 +13°C° 0 mm 5 mps 747 mmHg 65%
    19:00 +13°C° 0 mm 6 mps 747 mmHg 67%
    20:00 +11°C° 0 mm 6 mps 747 mmHg 69%
    21:00 +12°C° 0.1 mm 7 mps 747 mmHg 69%
    22:00 +12°C° 0.1 mm 7 mps 747 mmHg 70%
    23:00 +12°C° 0.1 mm 7 mps 747 mmHg 71%

    Tomorrow, 29 February, Saturday

    Time Temperature Precipitation Wind Pressure Humidity
    00:00 +12°C° 1.2 mm 9 mps 746 mmHg 74%
    01:00 +12°C° 1.2 mm 11 mps 745 mmHg 77%
    02:00 +12°C° 1.2 mm 14 mps 745 mmHg 81%
    03:00 +12°C° 0.3 mm 14 mps 745 mmHg 77%
    04:00 +10°C° 0.3 mm 14 mps 745 mmHg 73%
    05:00 +9°C° 0.3 mm 14 mps 745 mmHg 69%
    06:00 +9°C° 0.3 mm 14 mps 745 mmHg 69%
    07:00 +8°C° 0.3 mm 14 mps 746 mmHg 70%
    08:00 +8°C° 0.3 mm 14 mps 747 mmHg 71%
    09:00 +8°C° 0.2 mm 14 mps 747 mmHg 70%
    10:00 +8°C° 0.2 mm 14 mps 748 mmHg 69%
    11:00 +8°C° 0.2 mm 14 mps 748 mmHg 68%
    12:00 +8°C° 0 mm 14 mps 748 mmHg 67%
    13:00 +8°C° 0 mm 14 mps 749 mmHg 66%
    14:00 +9°C° 0 mm 14 mps 749 mmHg 65%
    15:00 +8°C° 0 mm 14 mps 749 mmHg 66%
    16:00 +8°C° 0 mm 13 mps 750 mmHg 67%
    17:00 +8°C° 0 mm 13 mps 750 mmHg 68%
    18:00 +8°C° 0 mm 12 mps 750 mmHg 70%
    19:00 +8°C° 0 mm 12 mps 751 mmHg 72%
    20:00 +8°C° 0 mm 11 mps 751 mmHg 73%
    21:00 +7°C° 0 mm 11 mps 752 mmHg 74%
    22:00 +7°C° 0 mm 10 mps 752 mmHg 76%
    23:00 +7°C° 0 mm 10 mps 752 mmHg 77%

    Day after tomorrow, 1 March, Sunday

    Time Temperature Precipitation Wind Pressure Humidity
    00:00 +6°C° 0 mm 9 mps 752 mmHg 78%
    01:00 +6°C° 0 mm 9 mps 752 mmHg 79%
    02:00 +6°C° 0 mm 9 mps 752 mmHg 80%
    03:00 +6°C° 0 mm 8 mps 752 mmHg 80%
    04:00 +6°C° 0 mm 8 mps 752 mmHg 80%
    05:00 +6°C° 0 mm 8 mps 752 mmHg 80%
    06:00 +6°C° 0 mm 8 mps 752 mmHg 78%
    07:00 +6°C° 0 mm 7 mps 752 mmHg 76%
    08:00 +8°C° 0 mm 7 mps 752 mmHg 73%
    09:00 +9°C° 0 mm 7 mps 752 mmHg 69%
    10:00 +10°C° 0 mm 7 mps 752 mmHg 64%
    11:00 +11°C° 0 mm 7 mps 752 mmHg 59%
    12:00 +11°C° 0 mm 7 mps 752 mmHg 59%
    13:00 +11°C° 0 mm 7 mps 752 mmHg 59%
    14:00 +11°C° 0 mm 7 mps 752 mmHg 59%
    15:00 +11°C° 0 mm 7 mps 751 mmHg 59%
    16:00 +11°C° 0 mm 6 mps 751 mmHg 59%
    17:00 +11°C° 0 mm 6 mps 751 mmHg 59%
    18:00 +12°C° 0 mm 5 mps 751 mmHg 60%
    19:00 +10°C° 0 mm 5 mps 752 mmHg 62%
    20:00 +10°C° 0 mm 5 mps 752 mmHg 63%
    21:00 +10°C° 0 mm 5 mps 752 mmHg 63%
    22:00 +11°C° 0 mm 4 mps 752 mmHg 63%
    23:00 +11°C° 0 mm 4 mps 752 mmHg 64%

    2 March, Monday

    Time Temperature Precipitation Wind Pressure Humidity
    00:00 +11°C° 0 mm 4 mps 752 mmHg 64%
    01:00 +11°C° 0 mm 3 mps 752 mmHg 65%
    02:00 +11°C° 0 mm 3 mps 752 mmHg 65%
    03:00 +11°C° 0 mm 3 mps 752 mmHg 65%
    04:00 +12°C° 0 mm 2 mps 751 mmHg 65%
    05:00 +10°C° 0 mm 2 mps 751 mmHg 65%
    06:00 +12°C° 0 mm 2 mps 751 mmHg 65%
    07:00 +12°C° 0 mm 2 mps 752 mmHg 65%
    08:00 +13°C° 0 mm 2 mps 752 mmHg 65%
    09:00 +12°C° 0 mm 3 mps 752 mmHg 64%
    10:00 +13°C° 0 mm 3 mps 752 mmHg 63%
    11:00 +14°C° 0 mm 4 mps 752 mmHg 63%
    12:00 +14°C° 0 mm 4 mps 752 mmHg 67%
    13:00 +14°C° 0 mm 4 mps 751 mmHg 70%
    14:00 +14°C° 0 mm 5 mps 751 mmHg 74%
    15:00 +14°C° 0 mm 4 mps 751 mmHg 75%
    16:00 +14°C° 0 mm 4 mps 751 mmHg 75%
    17:00 +14°C° 0 mm 4 mps 750 mmHg 75%
    18:00 +14°C° 0 mm 4 mps 751 mmHg 77%
    19:00 +13°C° 0 mm 4 mps 751 mmHg 79%
    20:00 +13°C° 0 mm 4 mps 751 mmHg 81%
    21:00 +12°C° 0 mm 5 mps 752 mmHg 81%
    22:00 +12°C° 0 mm 5 mps 752 mmHg 81%
    23:00 +12°C° 0 mm 5 mps 752 mmHg 81%

    3 March, Tuesday

    Time Temperature Precipitation Wind Pressure Humidity
    00:00 +12°C° 0 mm 5 mps 752 mmHg 81%
    01:00 +11°C° 0 mm 6 mps 752 mmHg 81%
    02:00 +11°C° 0 mm 6 mps 752 mmHg 81%
    03:00 +11°C° 0 mm 6 mps 752 mmHg 83%
    04:00 +11°C° 0 mm 7 mps 751 mmHg 84%
    05:00 +12°C° 0 mm 8 mps 751 mmHg 85%
    06:00 +12°C° 0 mm 8 mps 751 mmHg 86%
    07:00 +12°C° 0 mm 8 mps 752 mmHg 86%
    08:00 +13°C° 0 mm 9 mps 752 mmHg 86%
    09:00 +13°C° 0 mm 10 mps 752 mmHg 83%
    10:00 +14°C° 0 mm 10 mps 752 mmHg 80%
    11:00 +14°C° 0 mm 11 mps 752 mmHg 77%
    12:00 +16°C° 0 mm 11 mps 751 mmHg 75%
    13:00 +15°C° 0 mm 12 mps 751 mmHg 73%
    14:00 +15°C° 0 mm 12 mps 751 mmHg 71%
    15:00 +15°C° 0 mm 12 mps 750 mmHg 73%
    16:00 +14°C° 0 mm 12 mps 750 mmHg 75%
    17:00 +14°C° 0 mm 12 mps 750 mmHg 77%
    18:00 +13°C° 0 mm 12 mps 750 mmHg 79%
    19:00 +13°C° 0 mm 12 mps 750 mmHg 81%
    20:00 +12°C° 0 mm 12 mps 750 mmHg 83%
    21:00 +12°C° 0 mm 12 mps 750 mmHg 83%
    22:00 +12°C° 0 mm 13 mps 750 mmHg 83%
    23:00 +12°C° 0 mm 13 mps 750 mmHg 84%

    4 March, Wednesday

    Time Temperature Precipitation Wind Pressure Humidity
    00:00 +12°C° 0 mm 13 mps 749 mmHg 84%
    01:00 +12°C° 0 mm 13 mps 749 mmHg 84%
    02:00 +12°C° 0 mm 14 mps 748 mmHg 84%
    03:00 +12°C° 0 mm 14 mps 748 mmHg 83%
    04:00 +12°C° 0 mm 14 mps 747 mmHg 83%
    05:00 +12°C° 0 mm 14 mps 747 mmHg 82%
    06:00 +13°C° 0 mm 14 mps 747 mmHg 82%
    07:00 +13°C° 0 mm 15 mps 746 mmHg 82%
    08:00 +13°C° 0 mm 15 mps 746 mmHg 82%
    09:00 +14°C° 0 mm 15 mps 746 mmHg 79%
    10:00 +14°C° 0 mm 15 mps 746 mmHg 76%
    11:00 +15°C° 0 mm 16 mps 745 mmHg 73%
    12:00 +15°C° 0.1 mm 16 mps 745 mmHg 72%
    13:00 +15°C° 0.1 mm 16 mps 744 mmHg 72%
    14:00 +15°C° 0.1 mm 16 mps 744 mmHg 71%
    15:00 +15°C° 1.8 mm 13 mps 744 mmHg 76%
    16:00 +14°C° 1.8 mm 11 mps 743 mmHg 80%
    17:00 +13°C° 1.8 mm 8 mps 743 mmHg 85%
    18:00 +13°C° 0.3 mm 8 mps 743 mmHg 83%
    19:00 +14°C° 0.3 mm 7 mps 744 mmHg 81%
    20:00 +12°C° 0.3 mm 7 mps 744 mmHg 79%
    21:00 +12°C° 0.1 mm 7 mps 744 mmHg 77%
    22:00 +12°C° 0.1 mm 8 mps 744 mmHg 75%
    23:00 +12°C° 0.1 mm 8 mps 744 mmHg 73%
    Show more